Year,Month,Day,Hour,Minute,Value (Times are PST for temperature in C)
2015,07,01,00,00,18.10
2015,07,01,00,01,18.00
2015,07,01,00,02,18.00
2015,07,01,00,03,18.00
2015,07,01,00,04,18.00
2015,07,01,00,05,17.90
2015,07,01,00,06,17.90
2015,07,01,00,07,17.90
2015,07,01,00,08,17.90
2015,07,01,00,09,17.80
2015,07,01,00,10,17.80
2015,07,01,00,11,17.80
2015,07,01,00,12,17.70
2015,07,01,00,13,17.70
2015,07,01,00,14,17.70
2015,07,01,00,15,17.70
2015,07,01,00,16,17.70
2015,07,01,00,17,17.60
2015,07,01,00,18,17.60
2015,07,01,00,19,17.60
2015,07,01,00,20,17.60
2015,07,01,00,21,17.50
2015,07,01,00,22,17.50
2015,07,01,00,23,17.50
2015,07,01,00,24,17.40
2015,07,01,00,25,17.40
2015,07,01,00,26,17.40
2015,07,01,00,27,17.40
2015,07,01,00,28,17.40
2015,07,01,00,29,17.40
2015,07,01,00,30,17.30
2015,07,01,00,31,17.30
2015,07,01,00,32,17.30
2015,07,01,00,33,17.30
2015,07,01,00,34,17.20
2015,07,01,00,35,17.20
2015,07,01,00,36,17.20
2015,07,01,00,37,17.10
2015,07,01,00,38,17.10
2015,07,01,00,39,17.10
2015,07,01,00,40,17.00
2015,07,01,00,41,17.00
2015,07,01,00,42,16.90
2015,07,01,00,43,16.90
2015,07,01,00,44,16.90
2015,07,01,00,45,16.90
2015,07,01,00,46,16.90
2015,07,01,00,47,16.90
2015,07,01,00,48,16.80
2015,07,01,00,49,16.80
2015,07,01,00,50,16.80
2015,07,01,00,51,16.80
2015,07,01,00,52,16.80
2015,07,01,00,53,16.80
2015,07,01,00,54,16.80
2015,07,01,00,55,16.80
2015,07,01,00,56,16.70
2015,07,01,00,57,16.70
2015,07,01,00,58,16.70
2015,07,01,00,59,16.70
2015,07,01,01,00,16.70
2015,07,01,01,01,16.70
2015,07,01,01,02,16.70
2015,07,01,01,03,16.70
2015,07,01,01,04,16.60
2015,07,01,01,05,16.60
2015,07,01,01,06,16.60
2015,07,01,01,07,16.60
2015,07,01,01,08,16.50
2015,07,01,01,09,16.50
2015,07,01,01,10,16.50
2015,07,01,01,11,16.40
2015,07,01,01,12,16.40
2015,07,01,01,13,16.40
2015,07,01,01,14,16.40
2015,07,01,01,15,16.40
2015,07,01,01,16,16.40
2015,07,01,01,17,16.30
2015,07,01,01,18,16.30
2015,07,01,01,19,16.30
2015,07,01,01,20,16.20
2015,07,01,01,21,16.20
2015,07,01,01,22,16.20
2015,07,01,01,23,16.10
2015,07,01,01,24,16.10
2015,07,01,01,25,16.10
2015,07,01,01,26,16.10
2015,07,01,01,27,16.00
2015,07,01,01,28,16.00
2015,07,01,01,29,16.00
2015,07,01,01,30,16.00
2015,07,01,01,31,16.00
2015,07,01,01,32,16.00
2015,07,01,01,33,16.00
2015,07,01,01,34,16.00
2015,07,01,01,35,16.00
2015,07,01,01,36,16.10
2015,07,01,01,37,16.10
2015,07,01,01,38,16.20
2015,07,01,01,39,16.20
2015,07,01,01,40,16.20
2015,07,01,01,41,16.20
2015,07,01,01,42,16.20
2015,07,01,01,43,16.20
2015,07,01,01,44,16.20
2015,07,01,01,45,16.20
2015,07,01,01,46,16.20
2015,07,01,01,47,16.20
2015,07,01,01,48,16.20
2015,07,01,01,49,16.30
2015,07,01,01,50,16.30
2015,07,01,01,51,16.30
2015,07,01,01,52,16.40
2015,07,01,01,53,16.50
2015,07,01,01,54,16.50
2015,07,01,01,55,16.60
2015,07,01,01,56,16.70
2015,07,01,01,57,16.80
2015,07,01,01,58,16.80
2015,07,01,01,59,16.80
2015,07,01,02,00,16.80
2015,07,01,02,01,16.80
2015,07,01,02,02,16.90
2015,07,01,02,03,16.90
2015,07,01,02,04,16.90
2015,07,01,02,05,16.90
2015,07,01,02,06,17.00
2015,07,01,02,07,17.00
2015,07,01,02,08,17.10
2015,07,01,02,09,17.10
2015,07,01,02,10,17.10
2015,07,01,02,11,17.10
2015,07,01,02,12,17.10
2015,07,01,02,13,17.20
2015,07,01,02,14,17.20
2015,07,01,02,15,17.20
2015,07,01,02,16,17.20
2015,07,01,02,17,17.20
2015,07,01,02,18,17.20
2015,07,01,02,19,17.30
2015,07,01,02,20,17.20
2015,07,01,02,21,17.20
2015,07,01,02,22,17.20
2015,07,01,02,23,17.20
2015,07,01,02,24,17.20
2015,07,01,02,25,17.20
2015,07,01,02,26,17.20
2015,07,01,02,27,17.20
2015,07,01,02,28,17.20
2015,07,01,02,29,17.20
2015,07,01,02,30,17.20
2015,07,01,02,31,17.20
2015,07,01,02,32,17.20
2015,07,01,02,33,17.20
2015,07,01,02,34,17.10
2015,07,01,02,35,17.10
2015,07,01,02,36,17.10
2015,07,01,02,37,17.10
2015,07,01,02,38,17.10
2015,07,01,02,39,17.10
2015,07,01,02,40,17.10
2015,07,01,02,41,17.10
2015,07,01,02,42,17.10
2015,07,01,02,43,17.00
2015,07,01,02,44,17.00
2015,07,01,02,45,17.00
2015,07,01,02,46,17.00
2015,07,01,02,47,16.90
2015,07,01,02,48,16.90
2015,07,01,02,49,16.90
2015,07,01,02,50,16.80
2015,07,01,02,51,16.80
2015,07,01,02,52,16.80
2015,07,01,02,53,16.70
2015,07,01,02,54,16.70
2015,07,01,02,55,16.60
2015,07,01,02,56,16.60
2015,07,01,02,57,16.60
2015,07,01,02,58,16.60
2015,07,01,02,59,16.60
2015,07,01,03,00,16.50
2015,07,01,03,01,16.50
2015,07,01,03,02,16.50
2015,07,01,03,03,16.40
2015,07,01,03,04,16.40
2015,07,01,03,05,16.40
2015,07,01,03,06,16.40
2015,07,01,03,07,16.40
2015,07,01,03,08,16.40
2015,07,01,03,09,16.40
2015,07,01,03,10,16.40
2015,07,01,03,11,16.40
2015,07,01,03,12,16.40
2015,07,01,03,13,16.40
2015,07,01,03,14,16.40
2015,07,01,03,15,16.40
2015,07,01,03,16,16.40
2015,07,01,03,17,16.30
2015,07,01,03,18,16.30
2015,07,01,03,19,16.30
2015,07,01,03,20,16.30
2015,07,01,03,21,16.30
2015,07,01,03,22,16.30
2015,07,01,03,23,16.30
2015,07,01,03,24,16.30
2015,07,01,03,25,16.30
2015,07,01,03,26,16.30
2015,07,01,03,27,16.20
2015,07,01,03,28,16.20
2015,07,01,03,29,16.20
2015,07,01,03,30,16.20
2015,07,01,03,31,16.20
2015,07,01,03,32,16.20
2015,07,01,03,33,16.10
2015,07,01,03,34,16.10
2015,07,01,03,35,16.10
2015,07,01,03,36,16.10
2015,07,01,03,37,16.10
2015,07,01,03,38,16.00
2015,07,01,03,39,16.00
2015,07,01,03,40,16.00
2015,07,01,03,41,16.00
2015,07,01,03,42,16.00
2015,07,01,03,43,16.00
2015,07,01,03,44,15.90
2015,07,01,03,45,15.90
2015,07,01,03,46,15.90
2015,07,01,03,47,15.90
2015,07,01,03,48,15.80
2015,07,01,03,49,15.80
2015,07,01,03,50,15.80
2015,07,01,03,51,15.80
2015,07,01,03,52,15.70
2015,07,01,03,53,15.70
2015,07,01,03,54,15.60
2015,07,01,03,55,15.60
2015,07,01,03,56,15.60
2015,07,01,03,57,15.60
2015,07,01,03,58,15.50
2015,07,01,03,59,15.50
2015,07,01,04,00,15.50
2015,07,01,04,01,15.40
2015,07,01,04,02,15.40
2015,07,01,04,03,15.40
2015,07,01,04,04,15.40
2015,07,01,04,05,15.30
2015,07,01,04,06,15.30
2015,07,01,04,07,15.30
2015,07,01,04,08,15.20
2015,07,01,04,09,15.20
2015,07,01,04,10,15.20
2015,07,01,04,11,15.20
2015,07,01,04,12,15.20
2015,07,01,04,13,15.10
2015,07,01,04,14,15.10
2015,07,01,04,15,15.10
2015,07,01,04,16,15.10
2015,07,01,04,17,15.10
2015,07,01,04,18,15.10
2015,07,01,04,19,15.00
2015,07,01,04,20,15.00
2015,07,01,04,21,15.00
2015,07,01,04,22,15.00
2015,07,01,04,23,14.90
2015,07,01,04,24,14.90
2015,07,01,04,25,14.90
2015,07,01,04,26,14.90
2015,07,01,04,27,14.90
2015,07,01,04,28,14.80
2015,07,01,04,29,14.80
2015,07,01,04,30,14.80
2015,07,01,04,31,14.80
2015,07,01,04,32,14.70
2015,07,01,04,33,14.70
2015,07,01,04,34,14.70
2015,07,01,04,35,14.70
2015,07,01,04,36,14.70
2015,07,01,04,37,14.70
2015,07,01,04,38,14.70
2015,07,01,04,39,14.60
2015,07,01,04,40,14.70
2015,07,01,04,41,14.70
2015,07,01,04,42,14.70
2015,07,01,04,43,14.70
2015,07,01,04,44,14.80
2015,07,01,04,45,14.80
2015,07,01,04,46,14.80
2015,07,01,04,47,14.90
2015,07,01,04,48,14.90
2015,07,01,04,49,14.90
2015,07,01,04,50,14.90
2015,07,01,04,51,14.90
2015,07,01,04,52,14.90
2015,07,01,04,53,14.90
2015,07,01,04,54,14.90
2015,07,01,04,55,14.90
2015,07,01,04,56,14.90
2015,07,01,04,57,14.90
2015,07,01,04,58,14.80
2015,07,01,04,59,14.80
2015,07,01,05,00,14.80
2015,07,01,05,01,14.80
2015,07,01,05,02,14.80
2015,07,01,05,03,14.80
2015,07,01,05,04,14.80
2015,07,01,05,05,14.80
2015,07,01,05,06,14.70
2015,07,01,05,07,14.70
2015,07,01,05,08,14.60
2015,07,01,05,09,14.60
2015,07,01,05,10,14.50
2015,07,01,05,11,14.50
2015,07,01,05,12,14.40
2015,07,01,05,13,14.40
2015,07,01,05,14,14.30
2015,07,01,05,15,14.30
2015,07,01,05,16,14.30
2015,07,01,05,17,14.20
2015,07,01,05,18,14.20
2015,07,01,05,19,14.20
2015,07,01,05,20,14.10
2015,07,01,05,21,14.10
2015,07,01,05,22,14.10
2015,07,01,05,23,14.10
2015,07,01,05,24,14.00
2015,07,01,05,25,14.00
2015,07,01,05,26,14.00
2015,07,01,05,27,14.00
2015,07,01,05,28,13.90
2015,07,01,05,29,13.90
2015,07,01,05,30,13.90
2015,07,01,05,31,13.90
2015,07,01,05,32,13.80
2015,07,01,05,33,13.80
2015,07,01,05,34,13.80
2015,07,01,05,35,13.80
2015,07,01,05,36,13.80
2015,07,01,05,37,13.70
2015,07,01,05,38,13.70
2015,07,01,05,39,13.70
2015,07,01,05,40,13.70
2015,07,01,05,41,13.70
2015,07,01,05,42,13.70
2015,07,01,05,43,13.60
2015,07,01,05,44,13.60
2015,07,01,05,45,13.60
2015,07,01,05,46,13.60
2015,07,01,05,47,13.60
2015,07,01,05,48,13.60
2015,07,01,05,49,13.60
2015,07,01,05,50,13.60
2015,07,01,05,51,13.70
2015,07,01,05,52,13.70
2015,07,01,05,53,13.80
2015,07,01,05,54,13.80
2015,07,01,05,55,13.80
2015,07,01,05,56,13.80
2015,07,01,05,57,13.90
2015,07,01,05,58,13.80
2015,07,01,05,59,13.80
2015,07,01,06,00,13.80
2015,07,01,06,01,13.80
2015,07,01,06,02,13.80
2015,07,01,06,03,13.80
2015,07,01,06,04,13.80
2015,07,01,06,05,13.80
2015,07,01,06,06,13.80
2015,07,01,06,07,13.70
2015,07,01,06,08,13.70
2015,07,01,06,09,13.70
2015,07,01,06,10,13.70
2015,07,01,06,11,13.70
2015,07,01,06,12,13.70
2015,07,01,06,13,13.70
2015,07,01,06,14,13.70
2015,07,01,06,15,13.70
2015,07,01,06,16,13.70
2015,07,01,06,17,13.70
2015,07,01,06,18,13.70
2015,07,01,06,19,13.70
2015,07,01,06,20,13.70
2015,07,01,06,21,13.70
2015,07,01,06,22,13.70
2015,07,01,06,23,13.80
2015,07,01,06,24,13.80
2015,07,01,06,25,13.80
2015,07,01,06,26,13.80
2015,07,01,06,27,13.90
2015,07,01,06,28,13.90
2015,07,01,06,29,13.90
2015,07,01,06,30,14.00
2015,07,01,06,31,14.00
2015,07,01,06,32,14.00
2015,07,01,06,33,14.00
2015,07,01,06,34,14.00
2015,07,01,06,35,14.00
2015,07,01,06,36,14.00
2015,07,01,06,37,14.00
2015,07,01,06,38,14.10
2015,07,01,06,39,14.10
2015,07,01,06,40,14.10
2015,07,01,06,41,14.10
2015,07,01,06,42,14.10
2015,07,01,06,43,14.10
2015,07,01,06,44,14.20
2015,07,01,06,45,14.20
2015,07,01,06,46,14.20
2015,07,01,06,47,14.20
2015,07,01,06,48,14.30
2015,07,01,06,49,14.30
2015,07,01,06,50,14.40
2015,07,01,06,51,14.40
2015,07,01,06,52,14.40
2015,07,01,06,53,14.50
2015,07,01,06,54,14.60
2015,07,01,06,55,14.60
2015,07,01,06,56,14.60
2015,07,01,06,57,14.70
2015,07,01,06,58,14.70
2015,07,01,06,59,14.80
2015,07,01,07,00,14.80
2015,07,01,07,01,14.90
2015,07,01,07,02,14.90
2015,07,01,07,03,14.90
2015,07,01,07,04,15.00
2015,07,01,07,05,15.10
2015,07,01,07,06,15.20
2015,07,01,07,07,15.30
2015,07,01,07,08,15.50
2015,07,01,07,09,15.60
2015,07,01,07,10,15.70
2015,07,01,07,11,15.80
2015,07,01,07,12,15.80
2015,07,01,07,13,15.90
2015,07,01,07,14,16.00
2015,07,01,07,15,16.00
2015,07,01,07,16,16.10
2015,07,01,07,17,16.20
2015,07,01,07,18,16.20
2015,07,01,07,19,16.30
2015,07,01,07,20,16.30
2015,07,01,07,21,16.40
2015,07,01,07,22,16.40
2015,07,01,07,23,16.50
2015,07,01,07,24,16.50
2015,07,01,07,25,16.60
2015,07,01,07,26,16.60
2015,07,01,07,27,16.70
2015,07,01,07,28,16.80
2015,07,01,07,29,16.80
2015,07,01,07,30,16.90
2015,07,01,07,31,16.90
2015,07,01,07,32,17.00
2015,07,01,07,33,17.00
2015,07,01,07,34,17.10
2015,07,01,07,35,17.20
2015,07,01,07,36,17.30
2015,07,01,07,37,17.30
2015,07,01,07,38,17.40
2015,07,01,07,39,17.40
2015,07,01,07,40,17.50
2015,07,01,07,41,17.50
2015,07,01,07,42,17.50
2015,07,01,07,43,17.60
2015,07,01,07,44,17.60
2015,07,01,07,45,17.60
2015,07,01,07,46,17.70
2015,07,01,07,47,17.70
2015,07,01,07,48,17.70
2015,07,01,07,49,17.70
2015,07,01,07,50,17.70
2015,07,01,07,51,17.70
2015,07,01,07,52,17.70
2015,07,01,07,53,17.70
2015,07,01,07,54,17.70
2015,07,01,07,55,17.70
2015,07,01,07,56,17.70
2015,07,01,07,57,17.80
2015,07,01,07,58,17.80
2015,07,01,07,59,17.90
2015,07,01,08,00,18.00
2015,07,01,08,01,18.00
2015,07,01,08,02,18.10
2015,07,01,08,03,18.20
2015,07,01,08,04,18.20
2015,07,01,08,05,18.20
2015,07,01,08,06,18.20
2015,07,01,08,07,18.30
2015,07,01,08,08,18.30
2015,07,01,08,09,18.40
2015,07,01,08,10,18.50
2015,07,01,08,11,18.60
2015,07,01,08,12,18.60
2015,07,01,08,13,18.60
2015,07,01,08,14,18.60
2015,07,01,08,15,18.60
2015,07,01,08,16,18.70
2015,07,01,08,17,18.70
2015,07,01,08,18,18.70
2015,07,01,08,19,18.70
2015,07,01,08,20,18.70
2015,07,01,08,21,18.70
2015,07,01,08,22,18.70
2015,07,01,08,23,18.70
2015,07,01,08,24,18.70
2015,07,01,08,25,18.70
2015,07,01,08,26,18.70
2015,07,01,08,27,18.80
2015,07,01,08,28,18.80
2015,07,01,08,29,18.80
2015,07,01,08,30,18.90
2015,07,01,08,31,18.90
2015,07,01,08,32,19.00
2015,07,01,08,33,19.10
2015,07,01,08,34,19.20
2015,07,01,08,35,19.30
2015,07,01,08,36,19.30
2015,07,01,08,37,19.40
2015,07,01,08,38,19.50
2015,07,01,08,39,19.60
2015,07,01,08,40,19.70
2015,07,01,08,41,19.80
2015,07,01,08,42,19.80
2015,07,01,08,43,19.80
2015,07,01,08,44,19.80
2015,07,01,08,45,19.80
2015,07,01,08,46,19.80
2015,07,01,08,47,19.70
2015,07,01,08,48,19.70
2015,07,01,08,49,19.80
2015,07,01,08,50,19.80
2015,07,01,08,51,19.80
2015,07,01,08,52,19.90
2015,07,01,08,53,19.90
2015,07,01,08,54,20.00
2015,07,01,08,55,20.00
2015,07,01,08,56,20.10
2015,07,01,08,57,20.10
2015,07,01,08,58,20.10
2015,07,01,08,59,20.10
2015,07,01,09,00,20.10
2015,07,01,09,01,20.10
2015,07,01,09,02,20.10
2015,07,01,09,03,20.00
2015,07,01,09,04,19.90
2015,07,01,09,05,19.90
2015,07,01,09,06,19.90
2015,07,01,09,07,19.80
2015,07,01,09,08,19.80
2015,07,01,09,09,19.80
2015,07,01,09,10,19.80
2015,07,01,09,11,19.80
2015,07,01,09,12,19.80
2015,07,01,09,13,19.80
2015,07,01,09,14,19.70
2015,07,01,09,15,19.70
2015,07,01,09,16,19.70
2015,07,01,09,17,19.70
2015,07,01,09,18,19.80
2015,07,01,09,19,19.80
2015,07,01,09,20,19.90
2015,07,01,09,21,19.90
2015,07,01,09,22,20.00
2015,07,01,09,23,20.00
2015,07,01,09,24,20.00
2015,07,01,09,25,20.00
2015,07,01,09,26,20.00
2015,07,01,09,27,20.10
2015,07,01,09,28,20.10
2015,07,01,09,29,20.10
2015,07,01,09,30,20.20
2015,07,01,09,31,20.20
2015,07,01,09,32,20.30
2015,07,01,09,33,20.40
2015,07,01,09,34,20.40
2015,07,01,09,35,20.50
2015,07,01,09,36,20.60
2015,07,01,09,37,20.70
2015,07,01,09,38,20.80
2015,07,01,09,39,20.80
2015,07,01,09,40,20.90
2015,07,01,09,41,20.90
2015,07,01,09,42,21.00
2015,07,01,09,43,21.10
2015,07,01,09,44,21.20
2015,07,01,09,45,21.30
2015,07,01,09,46,21.30
2015,07,01,09,47,21.50
2015,07,01,09,48,21.60
2015,07,01,09,49,21.70
2015,07,01,09,50,21.70
2015,07,01,09,51,21.70
2015,07,01,09,52,21.70
2015,07,01,09,53,21.70
2015,07,01,09,54,21.70
2015,07,01,09,55,21.80
2015,07,01,09,56,21.80
2015,07,01,09,57,21.80
2015,07,01,09,58,21.80
2015,07,01,09,59,21.80
2015,07,01,10,00,21.90
2015,07,01,10,01,21.90
2015,07,01,10,02,21.90
2015,07,01,10,03,21.90
2015,07,01,10,04,21.70
2015,07,01,10,05,21.50
2015,07,01,10,06,21.30
2015,07,01,10,07,21.30
2015,07,01,10,08,21.20
2015,07,01,10,09,21.20
2015,07,01,10,10,21.10
2015,07,01,10,11,21.00
2015,07,01,10,12,20.80
2015,07,01,10,13,20.80
2015,07,01,10,14,20.70
2015,07,01,10,15,20.60
2015,07,01,10,16,20.50
2015,07,01,10,17,20.40
2015,07,01,10,18,20.20
2015,07,01,10,19,20.10
2015,07,01,10,20,20.10
2015,07,01,10,21,20.10
2015,07,01,10,22,20.10
2015,07,01,10,23,20.00
2015,07,01,10,24,20.10
2015,07,01,10,25,20.10
2015,07,01,10,26,20.20
2015,07,01,10,27,20.20
2015,07,01,10,28,20.30
2015,07,01,10,29,20.30
2015,07,01,10,30,20.40
2015,07,01,10,31,20.40
2015,07,01,10,32,20.30
2015,07,01,10,33,20.30
2015,07,01,10,34,20.30
2015,07,01,10,35,20.30
2015,07,01,10,36,20.30
2015,07,01,10,37,20.30
2015,07,01,10,38,20.30
2015,07,01,10,39,20.40
2015,07,01,10,40,20.50
2015,07,01,10,41,20.50
2015,07,01,10,42,20.50
2015,07,01,10,43,20.40
2015,07,01,10,44,20.40
2015,07,01,10,45,20.40
2015,07,01,10,46,20.30
2015,07,01,10,47,20.30
2015,07,01,10,48,20.30
2015,07,01,10,49,20.30
2015,07,01,10,50,20.30
2015,07,01,10,51,20.30
2015,07,01,10,52,20.30
2015,07,01,10,53,20.30
2015,07,01,10,54,20.30
2015,07,01,10,55,20.30
2015,07,01,10,56,20.30
2015,07,01,10,57,20.40
2015,07,01,10,58,20.40
2015,07,01,10,59,20.50
2015,07,01,11,00,20.70
2015,07,01,11,01,20.80
2015,07,01,11,02,20.90
2015,07,01,11,03,21.00
2015,07,01,11,04,21.10
2015,07,01,11,05,21.20
2015,07,01,11,06,21.30
2015,07,01,11,07,21.30
2015,07,01,11,08,21.20
2015,07,01,11,09,21.20
2015,07,01,11,10,21.20
2015,07,01,11,11,21.20
2015,07,01,11,12,21.10
2015,07,01,11,13,21.10
2015,07,01,11,14,21.10
2015,07,01,11,15,21.20
2015,07,01,11,16,21.30
2015,07,01,11,17,21.20
2015,07,01,11,18,21.20
2015,07,01,11,19,21.20
2015,07,01,11,20,21.20
2015,07,01,11,21,21.30
2015,07,01,11,22,21.40
2015,07,01,11,23,21.40
2015,07,01,11,24,21.30
2015,07,01,11,25,21.30
2015,07,01,11,26,21.30
2015,07,01,11,27,21.40
2015,07,01,11,28,21.30
2015,07,01,11,29,21.30
2015,07,01,11,30,21.30
2015,07,01,11,31,21.30
2015,07,01,11,32,21.40
2015,07,01,11,33,21.50
2015,07,01,11,34,21.50
2015,07,01,11,35,21.50
2015,07,01,11,36,21.60
2015,07,01,11,37,21.60
2015,07,01,11,38,21.60
2015,07,01,11,39,21.60
2015,07,01,11,40,21.70
2015,07,01,11,41,21.80
2015,07,01,11,42,21.80
2015,07,01,11,43,21.80
2015,07,01,11,44,21.80
2015,07,01,11,45,21.70
2015,07,01,11,46,21.80
2015,07,01,11,47,21.80
2015,07,01,11,48,21.90
2015,07,01,11,49,22.00
2015,07,01,11,50,22.10
2015,07,01,11,51,22.20
2015,07,01,11,52,22.20
2015,07,01,11,53,22.20
2015,07,01,11,54,22.20
2015,07,01,11,55,22.20
2015,07,01,11,56,22.30
2015,07,01,11,57,22.30
2015,07,01,11,58,22.40
2015,07,01,11,59,22.50
2015,07,01,12,00,22.50
2015,07,01,12,01,22.60
2015,07,01,12,02,22.60
2015,07,01,12,03,22.70
2015,07,01,12,04,22.80
2015,07,01,12,05,22.90
2015,07,01,12,06,22.90
2015,07,01,12,07,22.90
2015,07,01,12,08,22.80
2015,07,01,12,09,22.80
2015,07,01,12,10,22.80
2015,07,01,12,11,22.80
2015,07,01,12,12,22.80
2015,07,01,12,13,22.70
2015,07,01,12,14,22.60
2015,07,01,12,15,22.60
2015,07,01,12,16,22.60
2015,07,01,12,17,22.60
2015,07,01,12,18,22.60
2015,07,01,12,19,22.60
2015,07,01,12,20,22.60
2015,07,01,12,21,22.50
2015,07,01,12,22,22.50
2015,07,01,12,23,22.40
2015,07,01,12,24,22.30
2015,07,01,12,25,22.30
2015,07,01,12,26,22.40
2015,07,01,12,27,22.50
2015,07,01,12,28,22.60
2015,07,01,12,29,22.70
2015,07,01,12,30,22.80
2015,07,01,12,31,22.90
2015,07,01,12,32,23.00
2015,07,01,12,33,23.10
2015,07,01,12,34,23.30
2015,07,01,12,35,23.40
2015,07,01,12,36,23.50
2015,07,01,12,37,23.40
2015,07,01,12,38,23.30
2015,07,01,12,39,23.20
2015,07,01,12,40,23.10
2015,07,01,12,41,23.00
2015,07,01,12,42,22.90
2015,07,01,12,43,22.90
2015,07,01,12,44,22.90
2015,07,01,12,45,22.80
2015,07,01,12,46,22.80
2015,07,01,12,47,22.70
2015,07,01,12,48,22.70
2015,07,01,12,49,22.70
2015,07,01,12,50,22.60
2015,07,01,12,51,22.60
2015,07,01,12,52,22.70
2015,07,01,12,53,22.80
2015,07,01,12,54,22.90
2015,07,01,12,55,23.00
2015,07,01,12,56,23.10
2015,07,01,12,57,23.20
2015,07,01,12,58,23.30
2015,07,01,12,59,23.40
2015,07,01,13,00,23.40
2015,07,01,13,01,23.30
2015,07,01,13,02,23.20
2015,07,01,13,03,23.20
2015,07,01,13,04,23.20
2015,07,01,13,05,23.20
2015,07,01,13,06,23.20
2015,07,01,13,07,23.10
2015,07,01,13,08,23.10
2015,07,01,13,09,23.20
2015,07,01,13,10,23.30
2015,07,01,13,11,23.40
2015,07,01,13,12,23.50
2015,07,01,13,13,23.60
2015,07,01,13,14,23.80
2015,07,01,13,15,23.90
2015,07,01,13,16,24.00
2015,07,01,13,17,24.10
2015,07,01,13,18,24.20
2015,07,01,13,19,24.40
2015,07,01,13,20,24.60
2015,07,01,13,21,24.80
2015,07,01,13,22,24.90
2015,07,01,13,23,24.90
2015,07,01,13,24,24.80
2015,07,01,13,25,24.70
2015,07,01,13,26,24.60
2015,07,01,13,27,24.60
2015,07,01,13,28,24.60
2015,07,01,13,29,24.70
2015,07,01,13,30,24.70
2015,07,01,13,31,24.70
2015,07,01,13,32,24.80
2015,07,01,13,33,24.80
2015,07,01,13,34,24.80
2015,07,01,13,35,24.80
2015,07,01,13,36,24.80
2015,07,01,13,37,24.80
2015,07,01,13,38,24.90
2015,07,01,13,39,24.90
2015,07,01,13,40,25.00
2015,07,01,13,41,25.10
2015,07,01,13,42,25.10
2015,07,01,13,43,25.20
2015,07,01,13,44,25.20
2015,07,01,13,45,25.10
2015,07,01,13,46,25.20
2015,07,01,13,47,25.10
2015,07,01,13,48,25.00
2015,07,01,13,49,24.90
2015,07,01,13,50,24.90
2015,07,01,13,51,24.90
2015,07,01,13,52,25.00
2015,07,01,13,53,25.10
2015,07,01,13,54,25.20
2015,07,01,13,55,25.20
2015,07,01,13,56,25.30
2015,07,01,13,57,25.30
2015,07,01,13,58,25.40
2015,07,01,13,59,25.40
2015,07,01,14,00,25.50
2015,07,01,14,01,25.50
2015,07,01,14,02,25.60
2015,07,01,14,03,25.60
2015,07,01,14,04,25.70
2015,07,01,14,05,25.70
2015,07,01,14,06,25.70
2015,07,01,14,07,25.80
2015,07,01,14,08,25.90
2015,07,01,14,09,26.00
2015,07,01,14,10,26.10
2015,07,01,14,11,26.10
2015,07,01,14,12,26.00
2015,07,01,14,13,26.00
2015,07,01,14,14,26.00
2015,07,01,14,15,26.00
2015,07,01,14,16,26.00
2015,07,01,14,17,26.00
2015,07,01,14,18,26.10
2015,07,01,14,19,26.20
2015,07,01,14,20,26.20
2015,07,01,14,21,26.30
2015,07,01,14,22,26.30
2015,07,01,14,23,26.40
2015,07,01,14,24,26.40
2015,07,01,14,25,26.50
2015,07,01,14,26,26.60
2015,07,01,14,27,26.70
2015,07,01,14,28,26.80
2015,07,01,14,29,27.00
2015,07,01,14,30,27.20
2015,07,01,14,31,27.30
2015,07,01,14,32,27.50
2015,07,01,14,33,27.60
2015,07,01,14,34,27.70
2015,07,01,14,35,27.70
2015,07,01,14,36,27.70
2015,07,01,14,37,27.70
2015,07,01,14,38,27.70
2015,07,01,14,39,27.80
2015,07,01,14,40,27.90
2015,07,01,14,41,28.00
2015,07,01,14,42,28.10
2015,07,01,14,43,28.30
2015,07,01,14,44,28.40
2015,07,01,14,45,28.40
2015,07,01,14,46,28.40
2015,07,01,14,47,28.40
2015,07,01,14,48,28.30
2015,07,01,14,49,28.30
2015,07,01,14,50,28.30
2015,07,01,14,51,28.40
2015,07,01,14,52,28.40
2015,07,01,14,53,28.40
2015,07,01,14,54,28.50
2015,07,01,14,55,28.60
2015,07,01,14,56,28.60
2015,07,01,14,57,28.60
2015,07,01,14,58,28.60
2015,07,01,14,59,28.70
2015,07,01,15,00,28.70
2015,07,01,15,01,28.70
2015,07,01,15,02,28.80
2015,07,01,15,03,28.80
2015,07,01,15,04,28.80
2015,07,01,15,05,28.70
2015,07,01,15,06,28.80
2015,07,01,15,07,28.80
2015,07,01,15,08,28.80
2015,07,01,15,09,28.80
2015,07,01,15,10,28.90
2015,07,01,15,11,29.00
2015,07,01,15,12,29.10
2015,07,01,15,13,29.10
2015,07,01,15,14,29.10
2015,07,01,15,15,29.10
2015,07,01,15,16,29.10
2015,07,01,15,17,29.10
2015,07,01,15,18,29.10
2015,07,01,15,19,29.20
2015,07,01,15,20,29.20
2015,07,01,15,21,29.30
2015,07,01,15,22,29.30
2015,07,01,15,23,29.30
2015,07,01,15,24,29.30
2015,07,01,15,25,29.40
2015,07,01,15,26,29.50
2015,07,01,15,27,29.50
2015,07,01,15,28,29.50
2015,07,01,15,29,29.60
2015,07,01,15,30,29.60
2015,07,01,15,31,29.70
2015,07,01,15,32,29.80
2015,07,01,15,33,29.80
2015,07,01,15,34,29.80
2015,07,01,15,35,29.70
2015,07,01,15,36,29.60
2015,07,01,15,37,29.60
2015,07,01,15,38,29.50
2015,07,01,15,39,29.40
2015,07,01,15,40,29.30
2015,07,01,15,41,29.30
2015,07,01,15,42,29.30
2015,07,01,15,43,29.30
2015,07,01,15,44,29.40
2015,07,01,15,45,29.50
2015,07,01,15,46,29.60
2015,07,01,15,47,29.70
2015,07,01,15,48,29.70
2015,07,01,15,49,29.70
2015,07,01,15,50,29.60
2015,07,01,15,51,29.60
2015,07,01,15,52,29.60
2015,07,01,15,53,29.60
2015,07,01,15,54,29.70
2015,07,01,15,55,29.80
2015,07,01,15,56,29.90
2015,07,01,15,57,29.90
2015,07,01,15,58,29.90
2015,07,01,15,59,29.90
2015,07,01,16,00,29.90
2015,07,01,16,01,29.90
2015,07,01,16,02,29.80
2015,07,01,16,03,29.70
2015,07,01,16,04,29.70
2015,07,01,16,05,29.60
2015,07,01,16,06,29.60
2015,07,01,16,07,29.50
2015,07,01,16,08,29.50
2015,07,01,16,09,29.60
2015,07,01,16,10,29.60
2015,07,01,16,11,29.70
2015,07,01,16,12,29.80
2015,07,01,16,13,29.80
2015,07,01,16,14,29.80
2015,07,01,16,15,29.80
2015,07,01,16,16,29.80
2015,07,01,16,17,29.80
2015,07,01,16,18,29.80
2015,07,01,16,19,29.80
2015,07,01,16,20,29.80
2015,07,01,16,21,29.80
2015,07,01,16,22,29.80
2015,07,01,16,23,29.80
2015,07,01,16,24,29.70
2015,07,01,16,25,29.70
2015,07,01,16,26,29.70
2015,07,01,16,27,29.70
2015,07,01,16,28,29.70
2015,07,01,16,29,29.60
2015,07,01,16,30,29.60
2015,07,01,16,31,29.70
2015,07,01,16,32,29.80
2015,07,01,16,33,29.80
2015,07,01,16,34,29.80
2015,07,01,16,35,29.80
2015,07,01,16,36,29.80
2015,07,01,16,37,29.80
2015,07,01,16,38,29.90
2015,07,01,16,39,30.00
2015,07,01,16,40,30.00
2015,07,01,16,41,30.00
2015,07,01,16,42,29.90
2015,07,01,16,43,29.80
2015,07,01,16,44,29.80
2015,07,01,16,45,29.80
2015,07,01,16,46,29.80
2015,07,01,16,47,29.80
2015,07,01,16,48,29.90
2015,07,01,16,49,29.90
2015,07,01,16,50,30.00
2015,07,01,16,51,30.10
2015,07,01,16,52,30.10
2015,07,01,16,53,30.10
2015,07,01,16,54,30.10
2015,07,01,16,55,30.10
2015,07,01,16,56,30.10
2015,07,01,16,57,30.10
2015,07,01,16,58,30.10
2015,07,01,16,59,30.10
2015,07,01,17,00,30.00
2015,07,01,17,01,30.00
2015,07,01,17,02,30.00
2015,07,01,17,03,30.00
2015,07,01,17,04,29.90
2015,07,01,17,05,30.00
2015,07,01,17,06,30.00
2015,07,01,17,07,30.00
2015,07,01,17,08,30.00
2015,07,01,17,09,30.10
2015,07,01,17,10,30.10
2015,07,01,17,11,30.10
2015,07,01,17,12,30.10
2015,07,01,17,13,30.20
2015,07,01,17,14,30.20
2015,07,01,17,15,30.30
2015,07,01,17,16,30.20
2015,07,01,17,17,30.20
2015,07,01,17,18,30.20
2015,07,01,17,19,30.10